When you browse on this site, cookies collect data to enhance your experience and personalize the content and advertising you see.
Visit our Privacy Policy to learn more. By continuing to use the site, you agree to this use of cookies and data.
  • En España
  • Lista de países
  • Para 7 días
  • Temperatura del agua
  • El tiempo en el mapa
  • Informadores
  • user-avatar
    Iniciar sesión

    Tiempo cada hora Nueva Imperial

    Hoy, 29 Enero, Miércoles

    Tiempo Temperatura Precipitaciones Viento Presión Humedad
    00:00 +9°C° 0 mm 1 mps 759 mmHg 92%
    01:00 +8°C° 0 mm 0 mps 759 mmHg 94%
    02:00 +7°C° 0 mm 0 mps 759 mmHg 94%
    03:00 +7°C° 0 mm 0 mps 759 mmHg 94%
    04:00 +7°C° 0 mm 1 mps 759 mmHg 94%
    05:00 +9°C° 0 mm 1 mps 759 mmHg 85%
    06:00 +11°C° 0 mm 1 mps 759 mmHg 76%
    07:00 +12°C° 0 mm 2 mps 759 mmHg 67%
    08:00 +15°C° 0 mm 2 mps 759 mmHg 57%
    09:00 +17°C° 0 mm 2 mps 759 mmHg 46%
    10:00 +20°C° 0 mm 2 mps 759 mmHg 36%
    11:00 +21°C° 0 mm 3 mps 759 mmHg 34%
    12:00 +22°C° 0 mm 3 mps 759 mmHg 33%
    13:00 +23°C° 0 mm 4 mps 758 mmHg 31%
    14:00 +22°C° 0 mm 4 mps 758 mmHg 34%
    15:00 +22°C° 0 mm 4 mps 758 mmHg 37%
    16:00 +21°C° 0 mm 4 mps 758 mmHg 40%
    17:00 +19°C° 0 mm 3 mps 758 mmHg 49%
    18:00 +17°C° 0 mm 3 mps 759 mmHg 59%
    19:00 +14°C° 0 mm 2 mps 759 mmHg 68%
    20:00 +13°C° 0 mm 2 mps 759 mmHg 77%
    21:00 +12°C° 0 mm 1 mps 759 mmHg 85%
    22:00 +10°C° 0 mm 1 mps 760 mmHg 94%
    23:00 +10°C° 0 mm 1 mps 759 mmHg 92%

    Mañana, 30 Enero, Jueves

    Tiempo Temperatura Precipitaciones Viento Presión Humedad
    00:00 +9°C° 0 mm 1 mps 759 mmHg 91%
    01:00 +8°C° 0 mm 0 mps 759 mmHg 90%
    02:00 +8°C° 0 mm 0 mps 759 mmHg 90%
    03:00 +7°C° 0 mm 0 mps 758 mmHg 90%
    04:00 +7°C° 0 mm 0 mps 758 mmHg 90%
    05:00 +8°C° 0 mm 0 mps 758 mmHg 81%
    06:00 +10°C° 0 mm 0 mps 758 mmHg 72%
    07:00 +13°C° 0 mm 1 mps 758 mmHg 63%
    08:00 +16°C° 0 mm 1 mps 758 mmHg 52%
    09:00 +21°C° 0 mm 1 mps 758 mmHg 41%
    10:00 +24°C° 0 mm 2 mps 758 mmHg 29%
    11:00 +25°C° 0 mm 2 mps 758 mmHg 28%
    12:00 +26°C° 0 mm 3 mps 757 mmHg 27%
    13:00 +28°C° 0 mm 3 mps 757 mmHg 26%
    14:00 +27°C° 0 mm 4 mps 757 mmHg 31%
    15:00 +25°C° 0 mm 4 mps 756 mmHg 36%
    16:00 +23°C° 0 mm 4 mps 756 mmHg 40%
    17:00 +21°C° 0 mm 4 mps 757 mmHg 53%
    18:00 +19°C° 0 mm 3 mps 757 mmHg 66%
    19:00 +16°C° 0 mm 3 mps 757 mmHg 79%
    20:00 +15°C° 0 mm 2 mps 757 mmHg 85%
    21:00 +15°C° 0 mm 2 mps 758 mmHg 92%
    22:00 +14°C° 0 mm 1 mps 758 mmHg 98%
    23:00 +14°C° 0 mm 1 mps 758 mmHg 98%

    Pasado mañana, 31 Enero, Viernes

    Tiempo Temperatura Precipitaciones Viento Presión Humedad
    00:00 +14°C° 0 mm 1 mps 758 mmHg 98%
    01:00 +13°C° 0 mm 0 mps 757 mmHg 98%
    02:00 +12°C° 0 mm 0 mps 757 mmHg 98%
    03:00 +12°C° 0 mm 0 mps 757 mmHg 97%
    04:00 +12°C° 0 mm 0 mps 757 mmHg 97%
    05:00 +13°C° 0 mm 0 mps 757 mmHg 92%
    06:00 +15°C° 0 mm 0 mps 757 mmHg 88%
    07:00 +16°C° 0 mm 0 mps 757 mmHg 83%
    08:00 +21°C° 0 mm 1 mps 757 mmHg 71%
    09:00 +24°C° 0 mm 1 mps 757 mmHg 59%
    10:00 +27°C° 0 mm 1 mps 756 mmHg 47%
    11:00 +28°C° 0 mm 2 mps 756 mmHg 44%
    12:00 +29°C° 0 mm 3 mps 756 mmHg 41%
    13:00 +30°C° 0 mm 4 mps 756 mmHg 39%
    14:00 +29°C° 0 mm 4 mps 755 mmHg 43%
    15:00 +28°C° 0 mm 4 mps 755 mmHg 47%
    16:00 +27°C° 0 mm 4 mps 755 mmHg 51%
    17:00 +24°C° 0 mm 3 mps 755 mmHg 62%
    18:00 +21°C° 0 mm 3 mps 755 mmHg 72%
    19:00 +18°C° 0 mm 2 mps 756 mmHg 83%
    20:00 +18°C° 0 mm 1 mps 756 mmHg 88%
    21:00 +16°C° 0 mm 1 mps 756 mmHg 93%
    22:00 +15°C° 0 mm 1 mps 756 mmHg 97%
    23:00 +15°C° 0 mm 1 mps 755 mmHg 97%

    1 Febrero, Sábado

    Tiempo Temperatura Precipitaciones Viento Presión Humedad
    00:00 +14°C° 0 mm 0 mps 755 mmHg 96%
    01:00 +14°C° 0 mm 0 mps 755 mmHg 95%
    02:00 +14°C° 0 mm 0 mps 755 mmHg 95%
    03:00 +14°C° 0 mm 0 mps 755 mmHg 94%
    04:00 +14°C° 0 mm 0 mps 755 mmHg 93%
    05:00 +16°C° 0 mm 1 mps 755 mmHg 89%
    06:00 +18°C° 0 mm 1 mps 755 mmHg 84%
    07:00 +18°C° 0 mm 1 mps 754 mmHg 80%
    08:00 +21°C° 0 mm 1 mps 754 mmHg 69%
    09:00 +24°C° 0 mm 2 mps 754 mmHg 59%
    10:00 +27°C° 0 mm 2 mps 754 mmHg 48%
    11:00 +26°C° 0.1 mm 3 mps 754 mmHg 55%
    12:00 +25°C° 0.1 mm 4 mps 754 mmHg 62%
    13:00 +22°C° 0.1 mm 4 mps 754 mmHg 69%
    14:00 +20°C° 0.2 mm 4 mps 755 mmHg 74%
    15:00 +18°C° 0.2 mm 3 mps 755 mmHg 79%
    16:00 +16°C° 0.2 mm 2 mps 755 mmHg 85%
    17:00 +16°C° 0 mm 1 mps 756 mmHg 86%
    18:00 +15°C° 0 mm 1 mps 756 mmHg 87%
    19:00 +14°C° 0 mm 0 mps 757 mmHg 88%
    20:00 +13°C° 0 mm 0 mps 757 mmHg 90%
    21:00 +12°C° 0 mm 0 mps 757 mmHg 93%
    22:00 +11°C° 0 mm 0 mps 757 mmHg 95%
    23:00 +10°C° 0 mm 0 mps 757 mmHg 95%

    2 Febrero, Domingo

    Tiempo Temperatura Precipitaciones Viento Presión Humedad
    00:00 +10°C° 0 mm 0 mps 757 mmHg 96%
    01:00 +9°C° 0 mm 0 mps 757 mmHg 96%
    02:00 +9°C° 0 mm 0 mps 756 mmHg 96%
    03:00 +9°C° 0 mm 0 mps 756 mmHg 96%
    04:00 +8°C° 0 mm 0 mps 756 mmHg 97%
    05:00 +10°C° 0 mm 0 mps 756 mmHg 91%
    06:00 +12°C° 0 mm 0 mps 756 mmHg 85%
    07:00 +13°C° 0 mm 0 mps 756 mmHg 80%
    08:00 +17°C° 0 mm 0 mps 756 mmHg 65%
    09:00 +22°C° 0 mm 1 mps 755 mmHg 50%
    10:00 +25°C° 0 mm 1 mps 755 mmHg 34%
    11:00 +26°C° 0 mm 2 mps 755 mmHg 34%
    12:00 +26°C° 0 mm 3 mps 755 mmHg 33%
    13:00 +26°C° 0 mm 4 mps 754 mmHg 32%
    14:00 +25°C° 0 mm 4 mps 754 mmHg 34%
    15:00 +23°C° 0 mm 4 mps 754 mmHg 36%
    16:00 +22°C° 0 mm 4 mps 754 mmHg 38%
    17:00 +20°C° 0 mm 3 mps 754 mmHg 47%
    18:00 +18°C° 0 mm 2 mps 755 mmHg 56%
    19:00 +15°C° 0 mm 2 mps 755 mmHg 65%
    20:00 +14°C° 0 mm 1 mps 756 mmHg 72%
    21:00 +13°C° 0 mm 1 mps 756 mmHg 79%
    22:00 +11°C° 0 mm 1 mps 757 mmHg 86%
    23:00 +11°C° 0 mm 1 mps 756 mmHg 88%

    3 Febrero, Lunes

    Tiempo Temperatura Precipitaciones Viento Presión Humedad
    00:00 +10°C° 0 mm 1 mps 756 mmHg 90%
    01:00 +10°C° 0 mm 1 mps 756 mmHg 91%
    02:00 +10°C° 0 mm 1 mps 755 mmHg 92%
    03:00 +9°C° 0 mm 1 mps 755 mmHg 93%
    04:00 +9°C° 0 mm 1 mps 755 mmHg 93%
    05:00 +10°C° 0 mm 2 mps 755 mmHg 86%
    06:00 +12°C° 0 mm 2 mps 754 mmHg 79%
    07:00 +13°C° 0 mm 2 mps 754 mmHg 72%
    08:00 +16°C° 0 mm 3 mps 754 mmHg 64%
    09:00 +18°C° 0 mm 3 mps 754 mmHg 56%
    10:00 +21°C° 0 mm 4 mps 754 mmHg 48%
    11:00 +21°C° 0.1 mm 4 mps 753 mmHg 48%
    12:00 +21°C° 0.1 mm 5 mps 753 mmHg 47%
    13:00 +22°C° 0.1 mm 5 mps 753 mmHg 47%
    14:00 +18°C° 2.3 mm 4 mps 754 mmHg 62%
    15:00 +13°C° 2.3 mm 3 mps 754 mmHg 77%
    16:00 +10°C° 2.3 mm 2 mps 755 mmHg 93%
    17:00 +9°C° 2.3 mm 2 mps 755 mmHg 94%
    18:00 +10°C° 2.3 mm 1 mps 756 mmHg 95%
    19:00 +10°C° 2.3 mm 1 mps 757 mmHg 96%
    20:00 +10°C° 0 mm 1 mps 758 mmHg 96%
    21:00 +10°C° 0 mm 1 mps 759 mmHg 97%
    22:00 +10°C° 0 mm 1 mps 759 mmHg 97%
    23:00 +9°C° 0 mm 1 mps 759 mmHg 97%
    Mostrar más